Regional Weather Roundup
Issued by NWS Upton, NY

Current Version | Previous Version | Text Only | Print | Product List | Glossary Off
Versions: 1 2 3 4 5 6 7 8 9 10 11 12 13 14 15 16 17 18 19 20 21 22 23 24 25 26 27 28 29 30 31 32 33 34 35 36 37 38 39 40 41 42 43 44 45 46 47 48 49 50
000 ASUS41 KOKX 030708 RWROKX REGIONAL WEATHER ROUNDUP NATIONAL WEATHER SERVICE NEW YORK NY 200 AM EST SAT DEC 03 2016 NOTE: "FAIR" INDICATES FEW OR NO CLOUDS BELOW 12,000 FEET WITH NO SIGNIFICANT WEATHER AND/OR OBSTRUCTIONS TO VISIBILITY. NYZ071-072-176-178-NJZ106-104-030800- NEW YORK CITY METRO AREA CITY SKY/WX TMP DP RH WIND PRES REMARKS Central Park CLOUDY 44 30 57 W12G17 29.94R Wall St Helipt CLOUDY 45 33 63 W15G22 29.94R Bronx Bot Gard NOT AVBL LaGuardia APRT CLOUDY 46 31 55 W13 29.91R Kennedy INTL MOCLDY 45 30 55 W20G28 29.93R Breezy Point N/A 43 N/A N/A W13G20 N/A Newark/Liberty MOCLDY 43 31 62 W12 29.94R Teterboro CLOUDY 44 29 55 W9 29.92R $$ NYZ177-179-078>081-030800- LONG ISLAND NEW YORK CITY SKY/WX TMP DP RH WIND PRES REMARKS Jones Beach N/A 43 N/A N/A W16G23 N/A Matinecock PT NOT AVBL Farmingdale NOT AVBL MacArthur/ISP NOT AVBL Shirley NOT AVBL Westhampton NOT AVBL Southampton NOT AVBL Bridgehampton NOT AVBL East Hampton N/A 42 30 60 NW12G21 29.84S Montauk N/A 44 32 62 W15G24 29.84R $$ NYZ052-065-067-030800- HUDSON VALLEY CITY SKY/WX TMP DP RH WIND PRES REMARKS White Plains NOT AVBL Newburgh CLOUDY 39 32 75 NW16G28 29.89R WCI 30 Montgomery CLEAR 40 29 64 W9 29.89S WCI 34 Poughkeepsie NOT AVBL Albany CLOUDY 37 29 72 NW12G23 29.86R WCI 29 $$ NJZ001-105-106-008-010-013-015-019>022-104-030800- NEW JERSEY CITY SKY/WX TMP DP RH WIND PRES REMARKS Newark/Liberty MOCLDY 43 31 62 W12 29.94R Teterboro CLOUDY 44 29 55 W9 29.92R Caldwell NOT AVBL Somerville NOT AVBL Linden N/A 42 30 62 W10G17 29.94S Sussex NOT AVBL Andover N/A 41 28 60 VRB6 29.93R Trenton NOT AVBL Millville CLEAR 41 31 67 W12 30.05R Atlantic City CLEAR 42 28 57 W9 30.02R Wrightstown CLOUDY 42 30 62 W12 29.97R Toms River CLOUDY 40 30 67 W9 29.99R WCI 34 Belmar CLOUDY N/A N/A N/A W14 29.96S $$ PAZ047>061-062-071-030800- EASTERN PENNSYLVANIA CITY SKY/WX TMP DP RH WIND PRES REMARKS Philadelphia MOCLDY 42 30 62 W13 30.04R Allentown CLOUDY 43 29 57 W9 29.98R Scranton CLOUDY 38 30 73 W9 29.95S WCI 31 $$ CTZ002-004>006-009-010-012-RIZ004-006-007-MAZ004-011-015-030800- SOUTHERN NEW ENGLAND IN CT CITY SKY/WX TMP DP RH WIND PRES REMARKS Bradley INTL MOCLDY 40 28 62 NW10 29.84R WCI 33 Hartford MOCLDY 42 28 57 NW17G24 29.85 Danbury NOT AVBL Wtrbury/Oxford CLOUDY 39 27 60 W6 29.85R WCI 35 Bridgeport CLEAR 43 29 57 W10 29.87S Meriden LGT RAIN 42 31 64 NW9 29.86 New Haven NOT AVBL Chester N/A 41 28 60 W8G16 29.82S Groton NOT AVBL Wilimantic CLOUDY 42 31 64 W7 29.82R IN RI CITY SKY/WX TMP DP RH WIND PRES REMARKS Providence CLEAR 40 28 62 W13 29.79R WCI 32 Block Island NOT AVBL Westerly PTCLDY 40 28 62 VRB6 29.83 IN MA CITY SKY/WX TMP DP RH WIND PRES REMARKS Boston MOCLDY 40 31 70 NW14 29.77R WCI 32 Worcester CLOUDY 37 25 61 W16G23 29.76R WCI 28 Westfield PTCLDY 39 27 62 NW18G25 29.82 WCI 30 Provincetown NOT AVBL Nantucket CLOUDY 44 31 60 W20G30 29.76 $$ ANZ330-335-338-340-345-350-353-355-030800- COASTAL MARINE OBSERVATIONS STATION/POSITION TIME SKY/WX TEMP WIND PRES VSBY WAVE AIR SEA DIR/SP/G HT/PER (UTC) (F) (DEG/KT/KT) (MB) (MI) (FT/S) NY HARB ENTRANCE 0550 46 54 270/ 23/ 29 1012.7 4/ 4 20 S FIRE ISLAND 0550 47 54 290/ 27/ 31 1011.9 8/ 6 GREAT SOUTH BAY 0615 45 45 N/A 23 SSW MONTAUK P 0550 46 56 270/ 27/ 35 1010.5 7/ 7 15 E BARNEGAT LI 0630 54 N/A 5/ 5 HUDSON CANYON 0550 49 59 1012.1 11/ 7 KINGS POINT 0630 45 49 1012.6 EXECUTION ROCKS 0645 46 270/ 12/ 17 N/A CENTRAL LI SOUND 0630 46 51 280/ 21/ 27 N/A 5/ 6 EASTERN LI SOUND NOT AVBL ROBBINS REEF 0630 44 270/ 17/ 23 1013.4 $$ >>>>>>>>>>>>>>>>>>>>>>>>>>>> KEY <<<<<<<<<<<<<<<<<<<<<<<<<<< > < > SKY/WX - Sky Condition/Present Weather < > TMP - Temperature in Fahrenheit < > DP - Dew Point in Fahrenheit < > RH - Relative Humidity in Percent < > WIND - Direction (from) and Speed in MPH < > PRES - Mean Sea Level Pressure (inches of Hg) < > WCI - Wind Chill Index < > VSB - VISIBILITY IN MILES < > HX - HEAT INDEX < > TC - TEMPERATURE IN CELSIUS < > VRB - VARIABLE WIND DIRECTION < > < >>>>>>>>>>>>>>>>>>>>>>>>>>>> KEY <<<<<<<<<<<<<<<<<<<<<<<<<<<

USA.gov is the U.S. government's official web portal to all federal, state and local government web resources and services.